Location: C�mpuri de-Sus
(45.9500°N, 22.5500°E)
Time: 06:02:22
(UTC+00:00)

Cosmos 2237 - Pass Details

Date: 24 October 2021
Orbit: 845 x 856 km, 70.8° (Epoch: 04 December)

Event Time Altitude Azimuth Distance (km) Brightness Sun altitude
Rises 17:24:15 0° 210° (SSW) 3,406 7.7 -20.8°
Reaches altitude 10° 17:26:42 10° 212° (SSW) 2,476 7.0 -21.2°
Maximum altitude 17:32:24 74° 298° (WNW) 890 4.4 -22.2°
Drops below altitude 10° 17:38:09 10° 24° (NNE) 2,497 6.5 -23.2°
Enters shadow 17:38:41 - 24° (NNE) 2,701 6.6 -23.3°
